TimeCST,TemperatureF,Dew PointF,Humidity,Sea Level PressureIn,VisibilityMPH,Wind Direction,Wind SpeedMPH,Gust SpeedMPH,PrecipitationIn,Events,Conditions,WindDirDegrees,DateUTC
12:15 AM,6.8,3.2,85,30.19,-9999.0,SW,8.1,-,N/A,,Unknown,230,2012-12-30 06:15:00
12:35 AM,6.8,3.2,85,30.19,-9999.0,SW,6.9,-,N/A,,Unknown,230,2012-12-30 06:35:00
12:55 AM,6.8,3.2,85,30.19,-9999.0,SW,5.8,-,N/A,,Unknown,230,2012-12-30 06:55:00
1:15 AM,6.8,3.2,85,30.19,-9999.0,SW,5.8,-,N/A,,Unknown,230,2012-12-30 07:15:00
1:35 AM,6.8,3.2,85,30.20,-9999.0,SW,4.6,-,N/A,,Unknown,230,2012-12-30 07:35:00
1:55 AM,5.0,3.2,92,30.21,-9999.0,WSW,5.8,-,N/A,,Unknown,240,2012-12-30 07:55:00
2:15 AM,5.0,3.2,92,30.22,-9999.0,WSW,6.9,-,N/A,,Unknown,250,2012-12-30 08:15:00
2:35 AM,6.8,3.2,85,30.22,-9999.0,West,5.8,-,N/A,,Unknown,270,2012-12-30 08:35:00
2:55 AM,5.0,1.4,85,30.23,-9999.0,WSW,5.8,-,N/A,,Unknown,250,2012-12-30 08:55:00
3:15 AM,5.0,1.4,85,30.23,-9999.0,West,4.6,-,N/A,,Unknown,270,2012-12-30 09:15:00
3:35 AM,5.0,1.4,85,30.23,-9999.0,WNW,3.5,-,N/A,,Unknown,290,2012-12-30 09:35:00
3:55 AM,5.0,1.4,85,30.24,-9999.0,Calm,Calm,-,N/A,,Mostly Cloudy,0,2012-12-30 09:55:00
4:15 AM,5.0,1.4,85,30.23,-9999.0,Calm,Calm,-,N/A,,Overcast,0,2012-12-30 10:15:00
4:35 AM,5.0,1.4,85,30.23,-9999.0,Calm,Calm,-,N/A,,Overcast,0,2012-12-30 10:35:00
4:55 AM,3.2,-0.4,85,30.23,-9999.0,Calm,Calm,-,N/A,,Overcast,0,2012-12-30 10:55:00
5:15 AM,3.2,-0.4,85,30.24,-9999.0,Calm,Calm,-,N/A,,Overcast,0,2012-12-30 11:15:00
5:35 AM,3.2,-0.4,85,30.23,-9999.0,Calm,Calm,-,N/A,,Overcast,0,2012-12-30 11:35:00
5:55 AM,3.2,-2.2,78,30.25,-9999.0,Calm,Calm,-,N/A,,Overcast,0,2012-12-30 11:55:00
6:15 AM,3.2,-0.4,85,30.24,-9999.0,Calm,Calm,-,N/A,,Overcast,0,2012-12-30 12:15:00
6:55 AM,3.2,-0.4,85,30.26,-9999.0,Calm,Calm,-,N/A,,Unknown,0,2012-12-30 12:55:00
7:15 AM,1.4,-2.2,85,30.27,-9999.0,Calm,Calm,-,N/A,,Unknown,0,2012-12-30 13:15:00
7:35 AM,3.2,-0.4,85,30.26,-9999.0,Calm,Calm,-,N/A,,Unknown,0,2012-12-30 13:35:00
7:55 AM,5.0,1.4,85,30.26,-9999.0,Calm,Calm,-,N/A,,Unknown,0,2012-12-30 13:55:00
8:15 AM,3.2,-0.4,85,30.28,-9999.0,SSW,3.5,-,N/A,,Unknown,210,2012-12-30 14:15:00
8:35 AM,5.0,1.4,85,30.26,-9999.0,Calm,Calm,-,N/A,,Unknown,0,2012-12-30 14:35:00
8:55 AM,5.0,1.4,85,30.26,-9999.0,Calm,Calm,-,N/A,,Unknown,0,2012-12-30 14:55:00
9:15 AM,6.8,3.2,85,30.26,-9999.0,Calm,Calm,-,N/A,,Unknown,0,2012-12-30 15:15:00
9:35 AM,8.6,5.0,85,30.27,-9999.0,Calm,Calm,-,N/A,,Unknown,0,2012-12-30 15:35:00
9:55 AM,8.6,5.0,85,30.27,-9999.0,South,3.5,-,N/A,,Unknown,180,2012-12-30 15:55:00
10:15 AM,10.4,6.8,85,30.27,-9999.0,South,3.5,-,N/A,,Unknown,170,2012-12-30 16:15:00
10:35 AM,10.4,6.8,85,30.27,-9999.0,South,4.6,-,N/A,,Unknown,190,2012-12-30 16:35:00
10:55 AM,10.4,6.8,85,30.26,-9999.0,South,5.8,-,N/A,,Unknown,190,2012-12-30 16:55:00
11:15 AM,12.2,8.6,85,30.25,-9999.0,South,6.9,-,N/A,,Unknown,190,2012-12-30 17:15:00
11:35 AM,12.2,8.6,85,30.25,-9999.0,South,8.1,-,N/A,,Unknown,190,2012-12-30 17:35:00
11:55 AM,12.2,10.4,92,30.25,-9999.0,South,8.1,-,N/A,,Unknown,190,2012-12-30 17:55:00
12:15 PM,14.0,10.4,86,30.24,-9999.0,South,9.2,-,N/A,,Unknown,190,2012-12-30 18:15:00
12:35 PM,14.0,12.2,93,30.21,-9999.0,South,4.6,-,N/A,,Unknown,180,2012-12-30 18:35:00
12:55 PM,15.8,12.2,86,30.21,-9999.0,South,5.8,-,N/A,,Unknown,170,2012-12-30 18:55:00
1:15 PM,17.6,12.2,79,30.19,-9999.0,SSE,6.9,-,N/A,,Unknown,160,2012-12-30 19:15:00
1:35 PM,17.6,12.2,79,30.18,-9999.0,SE,8.1,-,N/A,,Clear,140,2012-12-30 19:35:00
1:55 PM,17.6,12.2,79,30.16,-9999.0,SSE,6.9,-,N/A,,Clear,150,2012-12-30 19:55:00
2:15 PM,19.4,12.2,74,30.16,-9999.0,SSE,5.8,-,N/A,,Clear,150,2012-12-30 20:15:00
3:15 PM,21.2,14.0,74,30.14,-9999.0,SSE,10.4,-,N/A,,Clear,150,2012-12-30 21:15:00
3:35 PM,21.2,14.0,74,30.13,-9999.0,SE,10.4,-,N/A,,Clear,140,2012-12-30 21:35:00
3:55 PM,21.2,15.8,80,30.13,-9999.0,SSE,9.2,-,N/A,,Clear,160,2012-12-30 21:55:00
4:15 PM,21.2,15.8,80,30.12,-9999.0,SSE,6.9,-,N/A,,Clear,150,2012-12-30 22:15:00
4:35 PM,21.2,15.8,80,30.12,-9999.0,SSE,5.8,-,N/A,,Clear,150,2012-12-30 22:35:00
4:55 PM,21.2,15.8,80,30.11,-9999.0,SSE,10.4,-,N/A,,Clear,150,2012-12-30 22:55:00
5:15 PM,21.2,15.8,80,30.09,-9999.0,SSE,10.4,-,N/A,,Clear,150,2012-12-30 23:15:00
5:55 PM,21.2,15.8,80,30.07,-9999.0,SSE,8.1,-,N/A,,Clear,150,2012-12-30 23:55:00
6:15 PM,21.2,17.6,86,30.06,-9999.0,SE,9.2,-,N/A,,Clear,140,2012-12-31 00:15:00
6:55 PM,23.0,19.4,86,30.06,-9999.0,South,6.9,-,N/A,,Unknown,170,2012-12-31 00:55:00
7:15 PM,26.6,21.2,80,30.06,-9999.0,South,9.2,-,N/A,,Clear,170,2012-12-31 01:15:00
7:35 PM,26.6,21.2,80,30.05,-9999.0,South,9.2,-,N/A,,Clear,170,2012-12-31 01:35:00
7:55 PM,26.6,21.2,80,30.04,-9999.0,SSE,8.1,-,N/A,,Clear,160,2012-12-31 01:55:00
8:15 PM,28.4,21.2,74,30.02,-9999.0,SSE,8.1,-,N/A,,Clear,160,2012-12-31 02:15:00
8:35 PM,28.4,23.0,80,30.01,-9999.0,South,16.1,-,N/A,,Clear,180,2012-12-31 02:35:00
8:55 PM,30.2,23.0,75,30.01,-9999.0,South,16.1,-,N/A,,Clear,180,2012-12-31 02:55:00
9:15 PM,30.2,23.0,75,30.00,-9999.0,South,13.8,-,N/A,,Clear,190,2012-12-31 03:15:00
9:35 PM,30.2,23.0,75,29.99,-9999.0,South,15.0,-,N/A,,Clear,190,2012-12-31 03:35:00
9:55 PM,30.2,23.0,75,29.98,-9999.0,South,13.8,-,N/A,,Clear,190,2012-12-31 03:55:00
10:15 PM,30.2,23.0,75,29.98,-9999.0,SSW,13.8,-,N/A,,Clear,200,2012-12-31 04:15:00
10:35 PM,32.0,23.0,69,29.99,-9999.0,SSW,13.8,-,N/A,,Clear,200,2012-12-31 04:35:00
10:55 PM,32.0,23.0,69,29.97,-9999.0,SSW,12.7,-,N/A,,Clear,200,2012-12-31 04:55:00
11:15 PM,32.0,23.0,69,29.97,-9999.0,SSW,12.7,-,N/A,,Clear,210,2012-12-31 05:15:00
11:35 PM,32.0,23.0,69,29.96,-9999.0,SSW,17.3,-,N/A,,Clear,210,2012-12-31 05:35:00
11:55 PM,32.0,24.8,75,29.97,-9999.0,SW,18.4,-,N/A,,Clear,220,2012-12-31 05:55:00